User: anonymous   Login
Location: Brno
(49.2000°N, 16.6330°E)
Time: 23:20:19
(UTC+02:00)
Language:

Cosmos 1459 Rocket - Orbit

View from above orbital plane
View from above orbital plane
View from above satellite
View from above satellite

Ground track
Ground track

The orbit data is extracted from the following two-line orbital elements,

1 14059U 83042B   14295.84055105  .00000173  00000-0  15474-3 0  4153
2 14059 082.9736 060.6072 0043880 106.4611 002.5590 13.78468257582343
Epoch (UTC): 22 October 2014 20:10:23
Eccentricity: 0.0043880
inclination: 82.9736°
perigee height: 937 km
apogee height: 1001 km
right ascension of ascending node: 60.6072°
argument of perigee: 106.4611°
revolutions per day: 13.78468257
mean anomaly at epoch: 2.5590°
orbit number at epoch: 58234

The dashed part of the orbit path shows where the satellite is in the earth's shadow,  

DLR